Time,TemperatureF,DewpointF,PressureIn,WindDirection,WindDirectionDegrees,WindSpeedMPH,WindSpeedGustMPH,Humidity,HourlyPrecipIn,Conditions,Clouds,dailyrainin,SoftwareType,DateUTC
2013-11-09 00:00:00,58.3,32.7,27.43,NE,45,0.0,0.0,38,0.00,,,0.00,WUHU216HW,2013-11-09 07:00:00,
2013-11-09 00:05:00,58.3,32.7,27.43,NE,45,0.0,0.0,38,0.00,,,0.00,WUHU216HW,2013-11-09 07:05:00,
2013-11-09 00:10:00,58.3,32.7,27.43,NE,45,0.0,0.0,38,0.00,,,0.00,WUHU216HW,2013-11-09 07:10:00,
2013-11-09 00:30:00,58.1,33.2,27.43,NE,45,0.0,0.0,39,0.00,,,0.00,WUHU216HW,2013-11-09 07:30:00,
2013-11-09 00:35:00,58.1,33.2,27.43,NE,45,0.0,0.0,39,0.00,,,0.00,WUHU216HW,2013-11-09 07:35:00,
2013-11-09 00:40:00,58.1,33.2,27.43,NE,45,0.0,0.0,39,0.00,,,0.00,WUHU216HW,2013-11-09 07:40:00,
2013-11-09 01:00:00,57.2,32.4,27.43,ESE,113,0.0,0.0,39,0.00,,,0.00,WUHU216HW,2013-11-09 08:00:00,
2013-11-09 01:05:00,57.2,33.1,27.43,SSW,203,0.0,0.0,40,0.00,,,0.00,WUHU216HW,2013-11-09 08:05:00,
2013-11-09 01:10:00,57.2,33.1,27.43,SSW,203,0.0,0.0,40,0.00,,,0.00,WUHU216HW,2013-11-09 08:10:00,
2013-11-09 01:30:00,56.3,32.3,27.43,ENE,68,0.0,0.0,40,0.00,,,0.00,WUHU216HW,2013-11-09 08:30:00,
2013-11-09 01:35:00,56.3,32.3,27.43,ENE,68,0.0,0.0,40,0.00,,,0.00,WUHU216HW,2013-11-09 08:35:00,
2013-11-09 01:40:00,56.3,32.3,27.43,ENE,68,0.0,0.0,40,0.00,,,0.00,WUHU216HW,2013-11-09 08:40:00,
2013-11-09 02:00:00,55.1,31.8,27.43,ENE,68,0.0,0.0,41,0.00,,,0.00,WUHU216HW,2013-11-09 09:00:00,
2013-11-09 02:05:00,55.1,32.3,27.43,ENE,68,0.0,0.0,42,0.00,,,0.00,WUHU216HW,2013-11-09 09:05:00,
2013-11-09 02:10:00,55.1,32.3,27.43,ENE,68,0.0,0.0,42,0.00,,,0.00,WUHU216HW,2013-11-09 09:10:00,
2013-11-09 02:30:00,54.0,31.9,27.43,NE,45,0.0,0.0,43,0.00,,,0.00,WUHU216HW,2013-11-09 09:30:00,
2013-11-09 02:35:00,54.0,31.9,27.43,NE,45,0.0,0.0,43,0.00,,,0.00,WUHU216HW,2013-11-09 09:35:00,
2013-11-09 02:40:00,54.0,31.9,27.43,NE,45,0.0,0.0,43,0.00,,,0.00,WUHU216HW,2013-11-09 09:40:00,
2013-11-09 03:00:00,52.7,31.9,27.43,NE,45,0.0,0.0,45,0.00,,,0.00,WUHU216HW,2013-11-09 10:00:00,
2013-11-09 03:05:00,52.7,31.9,27.43,NE,45,0.0,0.0,45,0.00,,,0.00,WUHU216HW,2013-11-09 10:05:00,
2013-11-09 03:10:00,52.7,31.9,27.43,NE,45,0.0,0.0,45,0.00,,,0.00,WUHU216HW,2013-11-09 10:10:00,
2013-11-09 03:30:00,52.2,31.4,27.43,ESE,113,0.4,0.4,45,0.00,,,0.00,WUHU216HW,2013-11-09 10:30:00,
2013-11-09 03:35:00,52.2,31.4,27.43,East,90,0.0,0.4,45,0.00,,,0.00,WUHU216HW,2013-11-09 10:35:00,
2013-11-09 03:40:00,52.2,31.4,27.43,East,90,0.0,0.4,45,0.00,,,0.00,WUHU216HW,2013-11-09 10:40:00,
2013-11-09 04:00:00,52.2,31.4,27.43,East,90,0.0,0.0,45,0.00,,,0.00,WUHU216HW,2013-11-09 11:00:00,
2013-11-09 04:05:00,52.2,31.4,27.43,East,90,0.0,0.0,45,0.00,,,0.00,WUHU216HW,2013-11-09 11:05:00,
2013-11-09 04:10:00,52.2,31.4,27.43,East,90,0.0,0.0,45,0.00,,,0.00,WUHU216HW,2013-11-09 11:10:00,
2013-11-09 04:30:00,51.7,31.4,27.43,North,0,0.0,0.0,46,0.00,,,0.00,WUHU216HW,2013-11-09 11:30:00,
2013-11-09 04:35:00,51.7,31.4,27.43,North,0,0.0,0.0,46,0.00,,,0.00,WUHU216HW,2013-11-09 11:35:00,
2013-11-09 04:40:00,51.7,31.4,27.43,North,0,0.0,0.0,46,0.00,,,0.00,WUHU216HW,2013-11-09 11:40:00,
2013-11-09 05:00:00,51.3,31.7,27.44,SE,135,0.0,0.0,47,0.00,,,0.00,WUHU216HW,2013-11-09 12:00:00,
2013-11-09 05:05:00,51.1,31.5,27.44,SE,135,0.0,0.0,47,0.00,,,0.00,WUHU216HW,2013-11-09 12:05:00,
2013-11-09 05:10:00,51.1,31.5,27.44,SE,135,0.0,0.0,47,0.00,,,0.00,WUHU216HW,2013-11-09 12:10:00,
2013-11-09 05:30:00,50.8,31.8,27.45,ENE,68,0.0,0.0,48,0.00,,,0.00,WUHU216HW,2013-11-09 12:30:00,
2013-11-09 05:35:00,50.8,31.8,27.45,ENE,68,0.0,0.0,48,0.00,,,0.00,WUHU216HW,2013-11-09 12:35:00,
2013-11-09 05:40:00,50.8,31.8,27.45,ENE,68,0.0,0.0,48,0.00,,,0.00,WUHU216HW,2013-11-09 12:40:00,
2013-11-09 06:00:00,50.4,31.4,27.45,NE,45,0.0,0.0,48,0.00,,,0.00,WUHU216HW,2013-11-09 13:00:00,
2013-11-09 06:05:00,50.4,31.4,27.45,NE,45,0.0,0.0,48,0.00,,,0.00,WUHU216HW,2013-11-09 13:05:00,
2013-11-09 06:10:00,50.4,31.4,27.45,NE,45,0.0,0.0,48,0.00,,,0.00,WUHU216HW,2013-11-09 13:10:00,
2013-11-09 06:30:00,49.9,31.5,27.46,SE,135,0.0,0.0,49,0.00,,,0.00,WUHU216HW,2013-11-09 13:30:00,
2013-11-09 06:35:00,49.9,31.5,27.46,ESE,113,0.2,0.2,49,0.00,,,0.00,WUHU216HW,2013-11-09 13:35:00,
2013-11-09 06:40:00,49.9,31.5,27.46,ESE,113,0.2,0.2,49,0.00,,,0.00,WUHU216HW,2013-11-09 13:40:00,
2013-11-09 07:00:00,49.5,31.7,27.47,ESE,113,0.0,0.0,50,0.00,,,0.00,WUHU216HW,2013-11-09 14:00:00,
2013-11-09 07:05:00,49.5,31.7,27.47,ESE,113,0.0,0.0,50,0.00,,,0.00,WUHU216HW,2013-11-09 14:05:00,
2013-11-09 07:10:00,49.5,31.7,27.47,ESE,113,0.0,0.0,50,0.00,,,0.00,WUHU216HW,2013-11-09 14:10:00,
2013-11-09 07:30:00,49.3,32.4,27.48,SSE,158,0.0,0.0,52,0.00,,,0.00,WUHU216HW,2013-11-09 14:30:00,
2013-11-09 07:35:00,49.3,32.4,27.48,SSE,158,0.0,0.0,52,0.00,,,0.00,WUHU216HW,2013-11-09 14:35:00,
2013-11-09 07:40:00,49.3,32.4,27.48,SSE,158,0.0,0.0,52,0.00,,,0.00,WUHU216HW,2013-11-09 14:40:00,
2013-11-09 08:00:00,52.0,34.0,27.49,SE,135,0.0,0.0,50,0.00,,,0.00,WUHU216HW,2013-11-09 15:00:00,
2013-11-09 08:05:00,52.0,34.0,27.49,SE,135,0.0,0.0,50,0.00,,,0.00,WUHU216HW,2013-11-09 15:05:00,
2013-11-09 08:10:00,52.0,34.0,27.49,SE,135,0.0,0.0,50,0.00,,,0.00,WUHU216HW,2013-11-09 15:10:00,
2013-11-09 08:30:00,54.9,35.5,27.49,NNE,23,0.7,0.7,48,0.00,,,0.00,WUHU216HW,2013-11-09 15:30:00,
2013-11-09 08:35:00,54.9,35.5,27.49,NNE,23,0.4,0.7,48,0.00,,,0.00,WUHU216HW,2013-11-09 15:35:00,
2013-11-09 08:40:00,54.9,35.5,27.49,NNE,23,0.4,0.4,48,0.00,,,0.00,WUHU216HW,2013-11-09 15:40:00,
2013-11-09 09:00:00,58.3,37.0,27.50,North,0,1.3,1.3,45,0.00,,,0.00,WUHU216HW,2013-11-09 16:00:00,
2013-11-09 09:05:00,58.5,37.2,27.50,North,0,1.3,1.3,45,0.00,,,0.00,WUHU216HW,2013-11-09 16:05:00,
2013-11-09 09:10:00,58.5,37.2,27.50,North,0,1.3,1.3,45,0.00,,,0.00,WUHU216HW,2013-11-09 16:10:00,
2013-11-09 09:30:00,62.3,36.9,27.50,SSE,158,0.0,0.0,39,0.00,,,0.00,WUHU216HW,2013-11-09 16:30:00,
2013-11-09 09:35:00,62.3,36.9,27.50,ESE,113,0.7,1.3,39,0.00,,,0.00,WUHU216HW,2013-11-09 16:35:00,
2013-11-09 09:40:00,62.3,36.9,27.50,ESE,113,0.7,1.3,39,0.00,,,0.00,WUHU216HW,2013-11-09 16:40:00,
2013-11-09 10:00:00,65.0,37.2,27.50,SE,135,0.0,0.0,36,0.00,,,0.00,WUHU216HW,2013-11-09 17:00:00,
2013-11-09 10:05:00,65.0,37.2,27.50,NE,45,0.2,0.2,36,0.00,,,0.00,WUHU216HW,2013-11-09 17:05:00,
2013-11-09 10:10:00,65.0,37.2,27.50,NE,45,0.2,0.2,36,0.00,,,0.00,WUHU216HW,2013-11-09 17:10:00,
2013-11-09 10:30:00,68.2,37.8,27.49,SE,135,0.2,0.2,33,0.00,,,0.00,WUHU216HW,2013-11-09 17:30:00,
2013-11-09 10:35:00,68.4,38.0,27.49,SSE,158,0.0,0.2,33,0.00,,,0.00,WUHU216HW,2013-11-09 17:35:00,
2013-11-09 10:40:00,68.4,38.0,27.49,SSE,158,0.0,0.2,33,0.00,,,0.00,WUHU216HW,2013-11-09 17:40:00,
2013-11-09 11:00:00,70.7,37.9,27.48,SW,225,0.4,0.4,30,0.00,,,0.00,WUHU216HW,2013-11-09 18:00:00,
2013-11-09 11:05:00,70.7,37.9,27.48,SW,225,0.7,0.7,30,0.00,,,0.00,WUHU216HW,2013-11-09 18:05:00,
2013-11-09 11:10:00,70.7,37.9,27.48,SW,225,0.7,0.7,30,0.00,,,0.00,WUHU216HW,2013-11-09 18:10:00,
2013-11-09 11:30:00,73.1,38.9,27.48,WSW,248,1.1,1.1,29,0.00,,,0.00,WUHU216HW,2013-11-09 18:30:00,
2013-11-09 11:35:00,73.1,38.9,27.47,WSW,248,1.8,1.8,29,0.00,,,0.00,WUHU216HW,2013-11-09 18:35:00,
2013-11-09 11:40:00,73.1,38.9,27.47,WSW,248,1.8,1.8,29,0.00,,,0.00,WUHU216HW,2013-11-09 18:40:00,
2013-11-09 12:00:00,74.9,39.4,27.46,South,180,0.2,0.2,28,0.00,,,0.00,WUHU216HW,2013-11-09 19:00:00,
2013-11-09 12:05:00,74.9,38.3,27.46,WSW,248,1.8,1.8,27,0.00,,,0.00,WUHU216HW,2013-11-09 19:05:00,
2013-11-09 12:10:00,74.9,38.3,27.46,WSW,248,1.8,1.8,27,0.00,,,0.00,WUHU216HW,2013-11-09 19:10:00,
2013-11-09 12:30:00,77.2,39.3,27.45,SSE,158,1.1,1.1,26,0.00,,,0.00,WUHU216HW,2013-11-09 19:30:00,
2013-11-09 12:35:00,77.4,39.5,27.45,NNE,23,0.4,1.1,26,0.00,,,0.00,WUHU216HW,2013-11-09 19:35:00,
2013-11-09 12:40:00,77.4,39.5,27.45,NNE,23,0.4,0.4,26,0.00,,,0.00,WUHU216HW,2013-11-09 19:40:00,
2013-11-09 13:00:00,78.5,39.3,27.43,SW,225,1.8,1.8,25,0.00,,,0.00,WUHU216HW,2013-11-09 20:00:00,
2013-11-09 13:05:00,78.5,39.3,27.43,West,270,1.8,1.8,25,0.00,,,0.00,WUHU216HW,2013-11-09 20:05:00,
2013-11-09 13:10:00,78.5,39.3,27.43,West,270,1.8,1.8,25,0.00,,,0.00,WUHU216HW,2013-11-09 20:10:00,
2013-11-09 13:30:00,79.6,39.3,27.43,West,270,1.1,1.1,24,0.00,,,0.00,WUHU216HW,2013-11-09 20:30:00,
2013-11-09 13:35:00,79.6,39.3,27.42,West,270,1.1,1.1,24,0.00,,,0.00,WUHU216HW,2013-11-09 20:35:00,
2013-11-09 13:40:00,79.6,39.3,27.42,West,270,1.1,1.1,24,0.00,,,0.00,WUHU216HW,2013-11-09 20:40:00,
2013-11-09 14:00:00,79.9,38.5,27.42,WSW,248,1.1,1.1,23,0.00,,,0.00,WUHU216HW,2013-11-09 21:00:00,
2013-11-09 14:05:00,79.9,38.5,27.42,NW,315,0.9,1.1,23,0.00,,,0.00,WUHU216HW,2013-11-09 21:05:00,
2013-11-09 14:10:00,79.9,38.5,27.42,NW,315,0.9,1.1,23,0.00,,,0.00,WUHU216HW,2013-11-09 21:10:00,
2013-11-09 14:30:00,80.5,39.0,27.41,WSW,248,2.9,2.9,23,0.00,,,0.00,WUHU216HW,2013-11-09 21:30:00,
2013-11-09 14:35:00,80.5,39.0,27.41,SE,135,1.1,2.9,23,0.00,,,0.00,WUHU216HW,2013-11-09 21:35:00,
2013-11-09 14:40:00,80.5,39.0,27.41,SE,135,1.1,1.1,23,0.00,,,0.00,WUHU216HW,2013-11-09 21:40:00,
2013-11-09 15:00:00,80.8,39.2,27.41,SW,225,1.3,1.3,23,0.00,,,0.00,WUHU216HW,2013-11-09 22:00:00,
2013-11-09 15:05:00,80.8,39.2,27.41,SW,225,1.1,1.3,23,0.00,,,0.00,WUHU216HW,2013-11-09 22:05:00,
2013-11-09 15:10:00,80.8,39.2,27.41,SW,225,1.1,1.1,23,0.00,,,0.00,WUHU216HW,2013-11-09 22:10:00,
2013-11-09 15:30:00,81.0,38.3,27.41,SW,225,0.2,0.2,22,0.00,,,0.00,WUHU216HW,2013-11-09 22:30:00,
2013-11-09 15:35:00,81.0,38.3,27.41,WSW,248,0.4,0.9,22,0.00,,,0.00,WUHU216HW,2013-11-09 22:35:00,
2013-11-09 15:40:00,81.0,38.3,27.41,WSW,248,0.4,0.9,22,0.00,,,0.00,WUHU216HW,2013-11-09 22:40:00,
2013-11-09 16:00:00,80.6,38.1,27.40,WSW,248,1.6,1.6,22,0.00,,,0.00,WUHU216HW,2013-11-09 23:00:00,
2013-11-09 16:05:00,80.6,38.1,27.40,SW,225,2.2,2.2,22,0.00,,,0.00,WUHU216HW,2013-11-09 23:05:00,
2013-11-09 16:10:00,80.6,38.1,27.40,SW,225,2.2,2.2,22,0.00,,,0.00,WUHU216HW,2013-11-09 23:10:00,
2013-11-09 16:30:00,80.1,38.6,27.40,NE,45,0.0,0.0,23,0.00,,,0.00,WUHU216HW,2013-11-09 23:30:00,
2013-11-09 16:35:00,80.1,38.6,27.40,NNE,23,0.0,0.0,23,0.00,,,0.00,WUHU216HW,2013-11-09 23:35:00,
2013-11-09 16:40:00,80.1,38.6,27.40,NNE,23,0.0,0.0,23,0.00,,,0.00,WUHU216HW,2013-11-09 23:40:00,
2013-11-09 17:00:00,79.2,37.8,27.41,SW,225,0.0,0.0,23,0.00,,,0.00,WUHU216HW,2013-11-10 00:00:00,
2013-11-09 17:05:00,79.2,37.8,27.40,SW,225,0.0,0.0,23,0.00,,,0.00,WUHU216HW,2013-11-10 00:05:00,
2013-11-09 17:10:00,79.2,37.8,27.40,SW,225,0.0,0.0,23,0.00,,,0.00,WUHU216HW,2013-11-10 00:10:00,
2013-11-09 17:30:00,77.6,37.5,27.40,SW,225,0.0,0.0,24,0.00,,,0.00,WUHU216HW,2013-11-10 00:30:00,
2013-11-09 17:35:00,77.6,38.6,27.40,SW,225,0.0,0.0,25,0.00,,,0.00,WUHU216HW,2013-11-10 00:35:00,
2013-11-09 17:40:00,77.6,38.6,27.40,SW,225,0.0,0.0,25,0.00,,,0.00,WUHU216HW,2013-11-10 00:40:00,
2013-11-09 18:00:00,74.7,39.3,27.41,North,0,0.0,0.0,28,0.00,,,0.00,WUHU216HW,2013-11-10 01:00:00,
2013-11-09 18:05:00,74.7,39.3,27.41,North,0,0.0,0.0,28,0.00,,,0.00,WUHU216HW,2013-11-10 01:05:00,
2013-11-09 18:10:00,74.7,39.3,27.41,North,0,0.0,0.0,28,0.00,,,0.00,WUHU216HW,2013-11-10 01:10:00,
2013-11-09 18:30:00,71.8,37.8,27.42,North,0,0.0,0.0,29,0.00,,,0.00,WUHU216HW,2013-11-10 01:30:00,
2013-11-09 18:35:00,71.8,37.8,27.42,North,0,0.0,0.0,29,0.00,,,0.00,WUHU216HW,2013-11-10 01:35:00,
2013-11-09 19:00:00,69.1,37.2,27.42,ESE,113,0.0,0.0,31,0.00,,,0.00,WUHU216HW,2013-11-10 02:00:00,
2013-11-09 19:05:00,69.1,37.2,27.42,ESE,113,0.0,0.0,31,0.00,,,0.00,WUHU216HW,2013-11-10 02:05:00,
2013-11-09 19:10:00,69.1,37.2,27.42,ESE,113,0.0,0.0,31,0.00,,,0.00,WUHU216HW,2013-11-10 02:10:00,
2013-11-09 19:30:00,67.7,36.6,27.43,East,90,0.0,0.0,32,0.00,,,0.00,WUHU216HW,2013-11-10 02:30:00,
2013-11-09 19:35:00,67.7,36.6,27.43,East,90,0.0,0.0,32,0.00,,,0.00,WUHU216HW,2013-11-10 02:35:00,
2013-11-09 19:40:00,67.7,36.6,27.43,East,90,0.0,0.0,32,0.00,,,0.00,WUHU216HW,2013-11-10 02:40:00,
2013-11-09 20:00:00,67.0,36.1,27.43,North,0,0.4,0.4,32,0.00,,,0.00,WUHU216HW,2013-11-10 03:00:00,
2013-11-09 20:05:00,67.0,36.1,27.43,North,0,0.4,0.4,32,0.00,,,0.00,WUHU216HW,2013-11-10 03:05:00,
2013-11-09 20:30:00,65.5,35.6,27.44,North,0,0.4,0.4,33,0.00,,,0.00,WUHU216HW,2013-11-10 03:30:00,
2013-11-09 20:35:00,65.5,35.6,27.44,North,0,0.4,0.4,33,0.00,,,0.00,WUHU216HW,2013-11-10 03:35:00,
2013-11-09 20:40:00,65.5,35.6,27.44,North,0,0.4,0.4,33,0.00,,,0.00,WUHU216HW,2013-11-10 03:40:00,
2013-11-09 21:00:00,63.7,35.4,27.45,SE,135,0.0,0.0,35,0.00,,,0.00,WUHU216HW,2013-11-10 04:00:00,
2013-11-09 21:05:00,63.7,35.4,27.45,SE,135,0.0,0.0,35,0.00,,,0.00,WUHU216HW,2013-11-10 04:05:00,
2013-11-09 21:10:00,63.7,35.4,27.45,SE,135,0.0,0.0,35,0.00,,,0.00,WUHU216HW,2013-11-10 04:10:00,
2013-11-09 21:30:00,63.0,35.5,27.45,WSW,248,0.0,0.0,36,0.00,,,0.00,WUHU216HW,2013-11-10 04:30:00,
2013-11-09 21:35:00,63.0,35.5,27.45,WSW,248,0.0,0.0,36,0.00,,,0.00,WUHU216HW,2013-11-10 04:35:00,
2013-11-09 21:40:00,63.0,35.5,27.45,WSW,248,0.0,0.0,36,0.00,,,0.00,WUHU216HW,2013-11-10 04:40:00,
2013-11-09 22:00:00,62.1,34.7,27.46,SE,135,0.0,0.0,36,0.00,,,0.00,WUHU216HW,2013-11-10 05:00:00,
2013-11-09 22:01:00,62.1,34.7,27.46,SE,135,0.0,0.0,36,0.00,,,0.00,WUHU216HW,2013-11-10 05:01:00,
2013-11-09 22:03:00,62.1,34.7,27.46,SE,135,0.0,0.0,36,0.00,,,0.00,WUHU216HW,2013-11-10 05:03:00,
2013-11-09 22:08:00,62.1,34.7,27.46,SE,135,0.0,0.0,36,0.00,,,0.00,WUHU216HW,2013-11-10 05:08:00,
2013-11-09 22:30:00,61.0,35.1,27.47,North,0,0.2,0.2,38,0.00,,,0.00,WUHU216HW,2013-11-10 05:30:00,
2013-11-09 22:35:00,61.0,35.1,27.47,North,0,0.2,0.2,38,0.00,,,0.00,WUHU216HW,2013-11-10 05:35:00,
2013-11-09 22:40:00,61.0,35.1,27.47,North,0,0.2,0.2,38,0.00,,,0.00,WUHU216HW,2013-11-10 05:40:00,
2013-11-09 23:00:00,60.7,39.7,27.48,NNE,23,0.0,0.0,46,0.00,,,0.00,WUHU216HW,2013-11-10 06:00:00,
2013-11-09 23:05:00,60.7,39.7,27.48,NNE,23,0.0,0.0,46,0.00,,,0.00,WUHU216HW,2013-11-10 06:05:00,
2013-11-09 23:10:00,60.7,39.7,27.48,NNE,23,0.0,0.0,46,0.00,,,0.00,WUHU216HW,2013-11-10 06:10:00,
2013-11-09 23:30:00,59.9,36.7,27.48,North,0,0.0,0.0,42,0.00,,,0.00,WUHU216HW,2013-11-10 06:30:00,
2013-11-09 23:35:00,59.9,36.7,27.48,North,0,0.0,0.0,42,0.00,,,0.00,WUHU216HW,2013-11-10 06:35:00,
2013-11-09 23:40:00,59.9,36.7,27.48,North,0,0.0,0.0,42,0.00,,,0.00,WUHU216HW,2013-11-10 06:40:00,